Station Historical Data
Daily Summary for November 18, 2017 Units:  Metric    English   Both
« Previous Day
Next Day »
Daily Weekly Monthly Yearly Custom
  High: Low: Average:
Temperature: 9.6 °C 0.2 °C 6.9 °C
Dew Point: 7.8 °C -3.3 °C 3.6 °C
Humidity: 93% 53% 80%
Wind Speed: 22.5km/h 0km/h 3.5km/h
Wind Gust: 30.6km/h - -
Wind- - South
Pressure: 1012.1 hPa 984 hPa -
Precipitation: 0 mm    
Historical Graphs
 
 
Tabular Data for November 18, 2017
Time Temperature Dew Point Pressure Wind Wind Speed Wind Gust Humidity Rainfall Rate (Hourly)
00:04 0.6 °C -2.8 °C 1012.1 hPa Calm     78% 0 mm
00:09 0.7 °C -2.7 °C 1012.1 hPa Calm     78% 0 mm
00:14 0.8 °C -2.6 °C 1012.1 hPa Calm     78% 0 mm
00:19 0.8 °C -2.6 °C 1011.7 hPa SE 1.6 km/h 1.6 km/h 78% 0 mm
00:24 0.8 °C -2.7 °C 1011.4 hPa Calm   3.2 km/h 77% 0 mm
00:29 0.8 °C -2.8 °C 1011.1 hPa Calm   3.2 km/h 77% 0 mm
00:34 0.8 °C -2.8 °C 1011.1 hPa ESE 1.6 km/h 4.8 km/h 77% 0 mm
00:39 0.8 °C -2.8 °C 1011.1 hPa Calm   4.8 km/h 77% 0 mm
00:44 0.7 °C -2.8 °C 1011.1 hPa Calm   3.2 km/h 77% 0 mm
00:49 0.6 °C -2.9 °C 1010.7 hPa Calm     77% 0 mm
00:54 0.5 °C -3.1 °C 1010.7 hPa Calm     77% 0 mm
00:59 0.4 °C -3.1 °C 1010.4 hPa Calm     77% 0 mm
01:04 0.3 °C -3.2 °C 1010 hPa Calm     77% 0 mm
01:09 0.3 °C -3.2 °C 1010 hPa Calm     77% 0 mm
01:14 0.3 °C -3.3 °C 1009.7 hPa Calm     77% 0 mm
01:19 0.2 °C -3.2 °C 1009.7 hPa Calm     78% 0 mm
01:24 0.2 °C -3.2 °C 1009.7 hPa Calm     78% 0 mm
01:29 0.2 °C -3.2 °C 1009.4 hPa Calm     78% 0 mm
01:34 0.2 °C -3.2 °C 1009.4 hPa Calm     78% 0 mm
01:39 0.3 °C -3.1 °C 1009 hPa Calm     78% 0 mm
01:44 0.4 °C -3.2 °C 1009 hPa Calm     77% 0 mm
01:49 0.4 °C -3 °C 1009 hPa Calm     78% 0 mm
01:54 0.6 °C -3 °C 1009 hPa Calm     77% 0 mm
01:59 0.8 °C -3 °C 1008.7 hPa Calm     76% 0 mm
02:04 0.8 °C -3.1 °C 1008.7 hPa Calm     75% 0 mm
02:09 0.9 °C -3.1 °C 1008.7 hPa Calm     75% 0 mm
02:14 1 °C -3.1 °C 1008.7 hPa Calm     74% 0 mm
02:19 1.1 °C -3.1 °C 1008.7 hPa Calm     74% 0 mm
02:24 1.1 °C -3.1 °C 1008.7 hPa Calm     74% 0 mm
02:29 1.1 °C -3 °C 1008.7 hPa Calm     74% 0 mm
02:34 1.1 °C -3 °C 1008.4 hPa Calm     74% 0 mm
02:39 1.3 °C -2.8 °C 1008.4 hPa Calm     74% 0 mm
02:44 1.3 °C -3 °C 1008 hPa Calm   6.4 km/h 73% 0 mm
02:49 1.4 °C -2.9 °C 1008 hPa SE 1.6 km/h 6.4 km/h 73% 0 mm
02:54 1.4 °C -2.9 °C 1008 hPa SE 1.6 km/h 4.8 km/h 73% 0 mm
02:59 1.6 °C -2.9 °C 1008 hPa SE 1.6 km/h 4.8 km/h 72% 0 mm
03:04 1.7 °C -2.8 °C 1007.7 hPa SE 1.6 km/h 4.8 km/h 72% 0 mm
03:09 1.9 °C -2.9 °C 1007.7 hPa Calm   4.8 km/h 70% 0 mm
03:14 2.2 °C -2.9 °C 1007.3 hPa Calm     69% 0 mm
03:19 2.4 °C -3.1 °C 1007 hPa Calm     67% 0 mm
03:24 2.7 °C -3.3 °C 1007 hPa Calm     65% 0 mm
03:29 2.8 °C -3.3 °C 1007 hPa Calm     64% 0 mm
03:34 2.9 °C -3.3 °C 1007 hPa Calm     64% 0 mm
03:39 2.9 °C -3.3 °C 1007 hPa Calm     64% 0 mm
03:44 2.8 °C -3.1 °C 1006.7 hPa Calm     65% 0 mm
03:49 2.9 °C -3.2 °C 1006.3 hPa Calm     64% 0 mm
03:54 3.1 °C -3.1 °C 1006.3 hPa Calm     64% 0 mm
03:59 3 °C -3.2 °C 1006.3 hPa Calm     64% 0 mm
04:04 2.9 °C -3.1 °C 1006.3 hPa Calm     65% 0 mm
04:09 2.8 °C -3.2 °C 1006.3 hPa Calm     65% 0 mm
04:14 2.8 °C -2.9 °C 1006.3 hPa Calm     66% 0 mm
04:19 2.7 °C -2.8 °C 1006.3 hPa Calm     67% 0 mm
04:24 2.7 °C -2.8 °C 1006.3 hPa Calm     67% 0 mm
04:29 2.8 °C -2.7 °C 1006.3 hPa Calm     67% 0 mm
04:34 2.8 °C -2.5 °C 1006.3 hPa Calm     68% 0 mm
04:39 2.8 °C -2.3 °C 1006 hPa Calm     69% 0 mm
04:44 2.8 °C -2.6 °C 1006.3 hPa Calm     68% 0 mm
04:49 2.9 °C -2.4 °C 1006 hPa Calm     68% 0 mm
04:54 3.1 °C -2.3 °C 1006 hPa Calm     68% 0 mm
04:59 3.1 °C -2.2 °C 1005.6 hPa Calm     68% 0 mm
05:04 3.3 °C -2.3 °C 1005.6 hPa Calm     67% 0 mm
05:09 3.4 °C -2.3 °C 1005.6 hPa Calm     66% 0 mm
05:14 3.6 °C -2 °C 1005.6 hPa Calm     67% 0 mm
05:19 3.8 °C -1.8 °C 1005.6 hPa Calm   6.4 km/h 67% 0 mm
05:24 4.4 °C -2.3 °C 1005.3 hPa SSW 1.6 km/h 8 km/h 62% 0 mm
05:29 5.1 °C -2.3 °C 1005.3 hPa SSW 1.6 km/h 8 km/h 59% 0 mm
05:34 5.6 °C -2.1 °C 1005.3 hPa Calm   11.3 km/h 58% 0 mm
05:39 6.3 °C -1.8 °C 1005 hPa SSW 3.2 km/h 11.3 km/h 56% 0 mm
05:44 7.1 °C -1.4 °C 1005 hPa SSW 4.8 km/h 16.1 km/h 55% 0 mm
05:49 7.4 °C -1.3 °C 1004.6 hPa South 3.2 km/h 14.5 km/h 54% 0 mm
05:54 7.6 °C -1.2 °C 1004.3 hPa SW 6.4 km/h 14.5 km/h 54% 0 mm
05:59 7.8 °C -1.2 °C 1003.9 hPa SSW 8 km/h 19.3 km/h 53% 0 mm
06:04 7.9 °C -0.8 °C 1004.3 hPa SSW 6.4 km/h 16.1 km/h 54% 0 mm
06:09 7.9 °C -0.3 °C 1003.9 hPa SSW 3.2 km/h 14.5 km/h 56% 0 mm
06:14 7.8 °C -0.2 °C 1003.9 hPa SSW 6.4 km/h 14.5 km/h 57% 0 mm
06:19 7.7 °C -0.1 °C 1003.6 hPa SSW 6.4 km/h 16.1 km/h 58% 0 mm
06:24 7.6 °C 0.3 °C 1003.3 hPa South 4.8 km/h 16.1 km/h 60% 0 mm
06:29 7.3 °C 0.4 °C 1003.3 hPa Calm   8 km/h 62% 0 mm
06:34 7.1 °C 0.8 °C 1003.3 hPa SW 1.6 km/h 8 km/h 64% 0 mm
06:39 6.9 °C 0.8 °C 1003.3 hPa SW 3.2 km/h 9.7 km/h 65% 0 mm
06:44 6.9 °C 0.8 °C 1003.3 hPa Calm   4.8 km/h 65% 0 mm
06:49 6.9 °C 0.9 °C 1003.6 hPa WSW 1.6 km/h 8 km/h 66% 0 mm
06:54 6.9 °C 0.8 °C 1003.9 hPa WSW 4.8 km/h 12.9 km/h 65% 0 mm
06:59 7.1 °C 1.1 °C 1003.9 hPa SW 3.2 km/h 16.1 km/h 66% 0 mm
07:04 7.2 °C 1.7 °C 1003.6 hPa WSW 14.5 km/h 17.7 km/h 68% 0 mm
07:09 7.2 °C 1.7 °C 1003.3 hPa SSW 9.7 km/h 27.4 km/h 68% 0 mm
07:14 7.2 °C 1.9 °C 1003.6 hPa SW 14.5 km/h 29 km/h 69% 0 mm
07:19 7.2 °C 2.1 °C 1003.6 hPa SSW 12.9 km/h 27.4 km/h 70% 0 mm
07:24 7.2 °C 2.3 °C 1003.3 hPa SW 12.9 km/h 29 km/h 71% 0 mm
07:29 7.1 °C 2.4 °C 1002.9 hPa SSW 14.5 km/h 29 km/h 72% 0 mm
07:34 7 °C 2.3 °C 1002.3 hPa SSW 12.9 km/h 29 km/h 72% 0 mm
07:39 6.9 °C 2.2 °C 1001.9 hPa South 11.3 km/h 25.7 km/h 72% 0 mm
07:44 6.9 °C 2.1 °C 1001.9 hPa SSW 11.3 km/h 20.9 km/h 71% 0 mm
07:49 6.9 °C 2.1 °C 1002.3 hPa South 11.3 km/h 22.5 km/h 71% 0 mm
07:54 7 °C 2.1 °C 1002.3 hPa SSW 11.3 km/h 22.5 km/h 71% 0 mm
07:59 6.9 °C 2.1 °C 1002.3 hPa SSW 8 km/h 19.3 km/h 71% 0 mm
08:04 6.9 °C 2.2 °C 1002.3 hPa South 4.8 km/h 14.5 km/h 72% 0 mm
08:09 6.9 °C 2.4 °C 1001.9 hPa SSW 9.7 km/h 16.1 km/h 73% 0 mm
08:14 7.1 °C 2.6 °C 1001.9 hPa South 3.2 km/h 19.3 km/h 73% 0 mm
08:19 7.2 °C 2.8 °C 1001.9 hPa SW 6.4 km/h 17.7 km/h 74% 0 mm
08:24 7.4 °C 3.3 °C 1001.9 hPa South 14.5 km/h 27.4 km/h 75% 0 mm
08:29 7.6 °C 3.4 °C 1001.9 hPa SSW 9.7 km/h 27.4 km/h 75% 0 mm
08:34 7.7 °C 3.7 °C 1001.9 hPa SSW 9.7 km/h 24.1 km/h 76% 0 mm
08:39 7.8 °C 3.8 °C 1001.6 hPa South 12.9 km/h 20.9 km/h 76% 0 mm
08:44 7.9 °C 3.9 °C 1001.6 hPa SSW 11.3 km/h 25.7 km/h 76% 0 mm
08:49 8.1 °C 4.1 °C 1001.6 hPa South 11.3 km/h 20.9 km/h 76% 0 mm
08:54 8.1 °C 4.3 °C 1001.9 hPa SSW 9.7 km/h 16.1 km/h 77% 0 mm
08:59 8.1 °C 4.3 °C 1001.6 hPa SSW 9.7 km/h 22.5 km/h 77% 0 mm
09:04 8.2 °C 4.4 °C 1001.2 hPa SSW 9.7 km/h 25.7 km/h 77% 0 mm
09:09 8.2 °C 4.4 °C 1001.6 hPa SSW 9.7 km/h 25.7 km/h 77% 0 mm
09:14 8.2 °C 4.4 °C 1001.9 hPa SSW 9.7 km/h 30.6 km/h 77% 0 mm
09:19 8.2 °C 4.4 °C 1001.6 hPa SSW 6.4 km/h 22.5 km/h 77% 0 mm
09:24 8.2 °C 4.6 °C 1001.9 hPa SW 9.7 km/h 19.3 km/h 78% 0 mm
09:29 8.3 °C 4.7 °C 1001.9 hPa SSW 9.7 km/h 19.3 km/h 78% 0 mm
09:34 8.3 °C 4.7 °C 1001.6 hPa West 11.3 km/h 20.9 km/h 78% 0 mm
09:39 8.3 °C 4.7 °C 1001.6 hPa South 17.7 km/h 24.1 km/h 78% 0 mm
09:44 8.3 °C 4.7 °C 1001.6 hPa South 6.4 km/h 19.3 km/h 78% 0 mm
09:49 8.3 °C 4.7 °C 1001.6 hPa SSW 4.8 km/h 16.1 km/h 78% 0 mm
09:54 8.3 °C 4.7 °C 1001.6 hPa SW 12.9 km/h 14.5 km/h 78% 0 mm
09:59 8.3 °C 4.7 °C 1001.6 hPa SW 14.5 km/h 19.3 km/h 78% 0 mm
10:04 8.3 °C 4.7 °C 1001.2 hPa SW 9.7 km/h 19.3 km/h 78% 0 mm
10:09 8.3 °C 4.7 °C 1001.2 hPa SW 9.7 km/h 20.9 km/h 78% 0 mm
10:14 8.3 °C 4.7 °C 1001.2 hPa SW 9.7 km/h 20.9 km/h 78% 0 mm
10:19 8.3 °C 4.7 °C 1000.9 hPa SSW 9.7 km/h 22.5 km/h 78% 0 mm
10:24 8.3 °C 4.7 °C 1000.9 hPa SSW 9.7 km/h 22.5 km/h 78% 0 mm
10:29 8.3 °C 4.9 °C 1000.9 hPa SW 6.4 km/h 22.5 km/h 79% 0 mm
10:34 8.3 °C 4.7 °C 1000.9 hPa South 4.8 km/h 16.1 km/h 78% 0 mm
10:39 8.3 °C 4.9 °C 1000.6 hPa SW 8 km/h 16.1 km/h 79% 0 mm
10:44 8.4 °C 4.9 °C 1000.6 hPa SW 6.4 km/h 17.7 km/h 79% 0 mm
10:49 8.4 °C 4.9 °C 1000.6 hPa SW 14.5 km/h 17.7 km/h 79% 0 mm
10:59 8.4 °C 5.1 °C 999.9 hPa SW 4.8 km/h 16.1 km/h 80% 0 mm
11:04 8.4 °C 5.2 °C 1000.2 hPa SSW 11.3 km/h 24.1 km/h 80% 0 mm
11:09 8.4 °C 5.2 °C 1000.2 hPa SSW 22.5 km/h 22.5 km/h 80% 0 mm
11:14 8.4 °C 5.4 °C 999.9 hPa SW 9.7 km/h 22.5 km/h 81% 0 mm
11:19 8.4 °C 5.4 °C 999.9 hPa SSW 8 km/h 22.5 km/h 81% 0 mm
11:24 8.4 °C 5.3 °C 999.9 hPa SSW 8 km/h 19.3 km/h 81% 0 mm
11:29 8.4 °C 5.3 °C 999.5 hPa SSW 9.7 km/h 19.3 km/h 81% 0 mm
11:34 8.4 °C 5.3 °C 999.5 hPa SSW 8 km/h 19.3 km/h 81% 0 mm
11:39 8.4 °C 5.5 °C 999.5 hPa SSW 3.2 km/h 17.7 km/h 82% 0 mm
11:44 8.4 °C 5.5 °C 999.5 hPa SSW 8 km/h 16.1 km/h 82% 0 mm
11:49 8.4 °C 5.6 °C 999.2 hPa SSW 8 km/h 17.7 km/h 82% 0 mm
11:54 8.4 °C 5.6 °C 999.2 hPa SSW 8 km/h 17.7 km/h 82% 0 mm
11:59 8.6 °C 5.7 °C 998.9 hPa SSW 11.3 km/h 14.5 km/h 82% 0 mm
12:04 8.6 °C 5.7 °C 998.9 hPa WSW 12.9 km/h 16.1 km/h 82% 0 mm
12:09 8.5 °C 5.6 °C 998.9 hPa WSW 9.7 km/h 17.7 km/h 82% 0 mm
12:14 8.5 °C 5.8 °C 998.9 hPa SSW 8 km/h 22.5 km/h 83% 0 mm
12:19 8.4 °C 5.7 °C 998.9 hPa SSW 9.7 km/h 22.5 km/h 83% 0 mm
12:24 8.4 °C 5.9 °C 998.5 hPa SSW 8 km/h 19.3 km/h 84% 0 mm
12:29 8.4 °C 5.8 °C 998.5 hPa SSW 8 km/h 19.3 km/h 84% 0 mm
12:34 8.3 °C 5.8 °C 998.5 hPa SSW 6.4 km/h 17.7 km/h 84% 0 mm
12:39 8.3 °C 5.8 °C 998.5 hPa SSW 6.4 km/h 17.7 km/h 84% 0 mm
12:44 8.4 °C 5.8 °C 998.2 hPa SSW 4.8 km/h 12.9 km/h 84% 0 mm
12:49 8.5 °C 5.9 °C 998.2 hPa SSW 11.3 km/h 19.3 km/h 84% 0 mm
12:54 8.6 °C 6 °C 998.2 hPa SW 8 km/h 20.9 km/h 84% 0 mm
12:59 8.6 °C 5.8 °C 998.2 hPa SW 8 km/h 20.9 km/h 83% 0 mm
13:04 8.6 °C 5.9 °C 997.9 hPa SSW 6.4 km/h 17.7 km/h 83% 0 mm
13:09 8.6 °C 5.9 °C 997.9 hPa SSW 6.4 km/h 16.1 km/h 83% 0 mm
13:14 8.7 °C 5.9 °C 997.5 hPa SW 8 km/h 12.9 km/h 83% 0 mm
13:19 8.8 °C 6.1 °C 997.5 hPa WSW 11.3 km/h 14.5 km/h 83% 0 mm
13:24 8.8 °C 6.1 °C 997.5 hPa SW 6.4 km/h 16.1 km/h 83% 0 mm
13:29 8.8 °C 6.1 °C 997.2 hPa SSW 8 km/h 22.5 km/h 83% 0 mm
13:34 8.8 °C 6.1 °C 997.2 hPa SSW 8 km/h 22.5 km/h 83% 0 mm
13:39 8.8 °C 6.1 °C 996.8 hPa SSW 8 km/h 17.7 km/h 83% 0 mm
13:44 8.9 °C 6.2 °C 996.5 hPa SW 9.7 km/h 14.5 km/h 83% 0 mm
13:49 8.9 °C 6.2 °C 996.5 hPa Calm   9.7 km/h 83% 0 mm
13:54 9 °C 6.3 °C 996.5 hPa SSW 3.2 km/h 11.3 km/h 83% 0 mm
13:59 9.1 °C 6.3 °C 996.2 hPa SSW 4.8 km/h 14.5 km/h 83% 0 mm
14:04 9.1 °C 6.2 °C 996.2 hPa SSW 4.8 km/h 14.5 km/h 82% 0 mm
14:09 9.2 °C 6.3 °C 996.2 hPa SSW 6.4 km/h 16.1 km/h 82% 0 mm
14:14 9.2 °C 6.3 °C 995.8 hPa South 6.4 km/h 14.5 km/h 82% 0 mm
14:19 9.3 °C 6.4 °C 995.8 hPa SSW 9.7 km/h 11.3 km/h 82% 0 mm
14:24 9.3 °C 6.4 °C 995.8 hPa Calm   9.7 km/h 82% 0 mm
14:29 9.3 °C 6.4 °C 995.5 hPa South 3.2 km/h 9.7 km/h 82% 0 mm
14:34 9.3 °C 6.4 °C 995.5 hPa SSW 4.8 km/h 9.7 km/h 82% 0 mm
14:39 9.4 °C 6.3 °C 995.1 hPa SSW 4.8 km/h 9.7 km/h 81% 0 mm
14:44 9.4 °C 6.3 °C 994.8 hPa South 4.8 km/h 11.3 km/h 81% 0 mm
14:49 9.4 °C 6.3 °C 994.8 hPa South 6.4 km/h 12.9 km/h 81% 0 mm
14:54 9.5 °C 6.4 °C 994.5 hPa South 1.6 km/h 11.3 km/h 81% 0 mm
14:59 9.5 °C 6.6 °C 994.5 hPa SSW 4.8 km/h 11.3 km/h 82% 0 mm
15:04 9.5 °C 6.6 °C 994.8 hPa SSW 6.4 km/h 11.3 km/h 82% 0 mm
15:09 9.5 °C 6.6 °C 994.5 hPa South 6.4 km/h 17.7 km/h 82% 0 mm
15:14 9.5 °C 6.6 °C 994.5 hPa South 6.4 km/h 17.7 km/h 82% 0 mm
15:19 9.5 °C 6.6 °C 994.5 hPa South 6.4 km/h 17.7 km/h 82% 0 mm
15:24 9.5 °C 6.6 °C 994.5 hPa SSW 6.4 km/h 14.5 km/h 82% 0 mm
15:29 9.6 °C 6.6 °C 994.5 hPa SSW 9.7 km/h 12.9 km/h 82% 0 mm
15:34 9.6 °C 6.6 °C 994.5 hPa SSW 3.2 km/h 16.1 km/h 82% 0 mm
15:39 9.5 °C 6.6 °C 994.5 hPa South 6.4 km/h 16.1 km/h 82% 0.25 mm
15:44 9.4 °C 6.7 °C 994.5 hPa South 4.8 km/h 14.5 km/h 83% 0.51 mm
15:49 9.2 °C 6.7 °C 994.1 hPa South 4.8 km/h 12.9 km/h 84% 0.51 mm
15:54 9.2 °C 6.8 °C 993.8 hPa SSE 1.6 km/h 8 km/h 85% 1.02 mm
15:59 9.1 °C 6.8 °C 993.8 hPa South 1.6 km/h 6.4 km/h 86% 1.02 mm
16:04 9.1 °C 6.8 °C 993.8 hPa SE 3.2 km/h 9.7 km/h 86% 1.27 mm
16:09 9 °C 6.9 °C 993.5 hPa SSE 4.8 km/h 11.3 km/h 87% 1.52 mm
16:14 9 °C 6.9 °C 993.5 hPa SSE 3.2 km/h 11.3 km/h 87% 1.52 mm
16:19 8.9 °C 6.9 °C 993.1 hPa Calm   4.8 km/h 87% 1.78 mm
16:24 8.9 °C 7 °C 993.1 hPa Calm   6.4 km/h 88% 2.03 mm
16:29 8.8 °C 6.9 °C 993.1 hPa Calm   4.8 km/h 88% 2.03 mm
16:34 8.8 °C 6.9 °C 993.1 hPa Calm   6.4 km/h 88% 2.03 mm
16:39 8.8 °C 6.9 °C 993.1 hPa Calm   3.2 km/h 88% 2.03 mm
16:44 8.7 °C 7 °C 993.1 hPa Calm   4.8 km/h 89% 2.03 mm
16:49 8.7 °C 6.9 °C 993.1 hPa Calm     89% 2.03 mm
16:54 8.7 °C 6.9 °C 993.1 hPa Calm     89% 2.03 mm
16:59 8.7 °C 6.9 °C 992.8 hPa Calm     89% 2.29 mm
17:04 8.6 °C 6.9 °C 992.8 hPa Calm     89% 2.29 mm
17:09 8.6 °C 7.1 °C 993.1 hPa Calm     90% 2.29 mm
17:14 8.6 °C 7.1 °C 992.8 hPa Calm     90% 2.79 mm
17:19 8.7 °C 7.1 °C 992.8 hPa Calm     90% 2.79 mm
17:24 8.6 °C 7.1 °C 992.8 hPa Calm     90% 3.05 mm
17:29 8.6 °C 7 °C 992.4 hPa Calm     90% 3.3 mm
17:34 8.6 °C 7 °C 992.1 hPa Calm     90% 3.56 mm
17:39 8.5 °C 6.9 °C 992.1 hPa Calm     90% 3.81 mm
17:44 8.5 °C 6.9 °C 991.8 hPa Calm     90% 3.56 mm
17:49 8.5 °C 6.9 °C 991.8 hPa Calm     90% 3.81 mm
17:54 8.5 °C 7.1 °C 991.4 hPa Calm     91% 3.3 mm
17:59 8.4 °C 7.1 °C 991.4 hPa Calm     91% 3.3 mm
18:04 8.4 °C 7.1 °C 991.1 hPa Calm     91% 3.05 mm
18:09 8.4 °C 7 °C 991.1 hPa ESE 1.6 km/h 6.4 km/h 91% 2.79 mm
18:14 8.4 °C 7 °C 991.1 hPa Calm   3.2 km/h 91% 2.29 mm
18:19 8.3 °C 6.9 °C 990.7 hPa East 1.6 km/h 4.8 km/h 91% 2.03 mm
18:24 8.3 °C 6.9 °C 990.7 hPa Calm   4.8 km/h 91% 1.78 mm
18:29 8.3 °C 6.9 °C 990.7 hPa East 1.6 km/h 8 km/h 91% 1.78 mm
18:34 8.4 °C 7 °C 990.4 hPa Calm   4.8 km/h 91% 1.52 mm
18:39 8.4 °C 7 °C 990.4 hPa Calm   4.8 km/h 91% 1.27 mm
18:44 8.3 °C 6.9 °C 990.4 hPa Calm   4.8 km/h 91% 1.52 mm
18:49 8.3 °C 6.9 °C 990.1 hPa Calm   4.8 km/h 91% 1.52 mm
18:54 8.3 °C 6.9 °C 989.7 hPa Calm   4.8 km/h 91% 1.52 mm
18:59 8.3 °C 6.9 °C 989.7 hPa East 1.6 km/h 4.8 km/h 91% 1.52 mm
19:04 8.3 °C 7.1 °C 989.4 hPa East 1.6 km/h 4.8 km/h 92% 1.52 mm
19:09 8.3 °C 7.1 °C 989.1 hPa East 1.6 km/h 6.4 km/h 92% 1.52 mm
19:14 8.3 °C 7.1 °C 989.4 hPa East 1.6 km/h 6.4 km/h 92% 1.78 mm
19:19 8.3 °C 7.1 °C 989.1 hPa Calm   8 km/h 92% 1.78 mm
19:24 8.3 °C 7.1 °C 988.7 hPa Calm   3.2 km/h 92% 1.52 mm
19:29 8.3 °C 7.1 °C 988.7 hPa East 1.6 km/h 8 km/h 92% 1.27 mm
19:34 8.3 °C 7.1 °C 988.7 hPa East 1.6 km/h 8 km/h 92% 1.27 mm
19:39 8.3 °C 7.1 °C 988.7 hPa Calm   3.2 km/h 92% 1.27 mm
19:44 8.4 °C 7.2 °C 988.4 hPa Calm   4.8 km/h 92% 1.02 mm
19:49 8.4 °C 7.2 °C 988.4 hPa East 1.6 km/h 4.8 km/h 92% 0.76 mm
19:54 8.4 °C 7.2 °C 988.4 hPa Calm   4.8 km/h 92% 0.76 mm
19:59 8.5 °C 7.3 °C 988.4 hPa Calm   4.8 km/h 92% 0.51 mm
20:04 8.5 °C 7.3 °C 988 hPa Calm   3.2 km/h 92% 0.51 mm
20:09 8.5 °C 7.3 °C 987.7 hPa Calm   4.8 km/h 92% 0.51 mm
20:14 8.5 °C 7.3 °C 987.7 hPa East 1.6 km/h 8 km/h 92% 0.25 mm
20:19 8.5 °C 7.3 °C 987.7 hPa ESE 3.2 km/h 4.8 km/h 92% 0.25 mm
20:24 8.6 °C 7.3 °C 987 hPa Calm   6.4 km/h 92% 0.25 mm
20:29 8.6 °C 7.3 °C 987.4 hPa East 4.8 km/h 6.4 km/h 92% 0.25 mm
20:34 8.6 °C 7.3 °C 987 hPa East 1.6 km/h 8 km/h 92% 0.25 mm
20:39 8.6 °C 7.4 °C 987 hPa East 1.6 km/h 8 km/h 92% 0 mm
20:44 8.6 °C 7.4 °C 987 hPa Calm   1.6 km/h 92% 0 mm
20:49 8.6 °C 7.4 °C 986.7 hPa Calm     92% 0 mm
20:54 8.7 °C 7.6 °C 986.7 hPa Calm     93% 0 mm
20:59 8.7 °C 7.6 °C 986.7 hPa Calm     93% 0.25 mm
21:04 8.7 °C 7.7 °C 986.7 hPa Calm     93% 0.25 mm
21:09 8.7 °C 7.7 °C 986.7 hPa Calm     93% 0.51 mm
21:14 8.7 °C 7.7 °C 986.3 hPa Calm     93% 0.51 mm
21:19 8.7 °C 7.7 °C 986.3 hPa Calm     93% 0.76 mm
21:24 8.8 °C 7.7 °C 986 hPa Calm     93% 0.76 mm
21:29 8.8 °C 7.7 °C 986 hPa Calm     93% 0.76 mm
21:34 8.8 °C 7.7 °C 986 hPa Calm     93% 1.02 mm
21:39 8.8 °C 7.7 °C 986 hPa Calm     93% 1.27 mm
21:44 8.8 °C 7.7 °C 985 hPa Calm     93% 1.52 mm
21:49 8.8 °C 7.7 °C 985.3 hPa Calm   6.4 km/h 93% 1.52 mm
21:54 8.8 °C 7.7 °C 985.7 hPa Calm     93% 1.52 mm
21:59 8.8 °C 7.7 °C 985 hPa Calm     93% 1.27 mm
22:04 8.8 °C 7.8 °C 985.7 hPa Calm     93% 1.27 mm
22:09 8.8 °C 7.8 °C 985.3 hPa Calm     93% 1.02 mm
22:24 8.8 °C 7.8 °C 984.6 hPa Calm     93% 1.02 mm
22:29 8.8 °C 7.8 °C 984.6 hPa Calm     93% 1.27 mm
22:34 8.8 °C 7.8 °C 984.6 hPa Calm     93% 1.02 mm
22:39 8.9 °C 7.8 °C 984.6 hPa Calm     93% 0.76 mm
22:44 8.8 °C 7.8 °C 984.6 hPa Calm     93% 0.51 mm
22:49 8.8 °C 7.8 °C 984.6 hPa Calm     93% 0.51 mm
22:54 8.8 °C 7.8 °C 984.6 hPa Calm     93% 0.76 mm
22:59 8.8 °C 7.8 °C 984.6 hPa Calm     93% 0.76 mm
23:04 8.8 °C 7.8 °C 984.3 hPa Calm     93% 1.02 mm
23:09 8.8 °C 7.8 °C 984.3 hPa Calm     93% 1.27 mm
23:14 8.8 °C 7.8 °C 984.3 hPa Calm     93% 1.02 mm
23:19 8.8 °C 7.7 °C 984.3 hPa Calm     93% 1.27 mm
23:24 8.8 °C 7.7 °C 984 hPa Calm     93% 1.78 mm
23:29 8.8 °C 7.7 °C 984 hPa Calm     93% 1.52 mm
23:34 8.8 °C 7.7 °C 984 hPa Calm     93% 1.78 mm
23:39 8.8 °C 7.7 °C 984 hPa Calm     93% 1.78 mm
23:44 8.8 °C 7.8 °C 984 hPa Calm     93% 2.03 mm
23:49 8.8 °C 7.8 °C 984 hPa Calm     93% 2.03 mm
23:54 8.8 °C 7.8 °C 984 hPa Calm     93% 2.03 mm
23:59 8.8 °C 7.8 °C 984 hPa Calm     93% 2.29 mm
Buffalo, New York, USA
Compliments of Weather Underground - 2.5 mb